Reflectivity
-20 -17 16 -20 -20 -20 -20 -20 -20 -20 -20 -20 -20 -20 -20 -20 -20 -19 19 15 6 -20
-20 -17 -20 -20 -20 -20 -20 -20 -20 -20 -20 -20 -20 -20 -20 -20 -20 -20 17 19 -1 -20
-15 -15 -20 -20 -20 -20 -20 -20 -20 -20 -20 -20 -20 -20 -20 -20 -20 -20 17 2 -19 -15
21 -15 -20 -20 -20 -20 -20 -20 -20 -20 -20 -20 -20 -20 -20 -0 11 4 3 -12 7 -11
-12 -20 -20 -20 -20 -20 -20 -20 -20 -20 -20 -20 -20 -20 -20 -20 -19 -20 -20 -20 -20 -20
-20 -20 -20 -20 -20 -20 -20 -20 -20 -20 -20 -20 -20 -20 -16 -20 6 -20 -20 -20 -20 -20
-20 -20 -20 -20 -20 -20 -20 -20 -20 -20 -20 -20 -20 -14 -9 -20 -20 -20 -20 -20 -20 -20
-20 -20 -20 -20 -20 -20 -20 -20 -20 -16 -20 -20 -20 -20 -20 -20 -20 -20 -20 -20 -20 -20
-20 -20 -20 -20 -20 -20 -20 -20 -20 -20 -11 -20 -19 -20 -20 -20 -20 -20 -20 -20 -20 -20
-20 -20 -20 -20 -20 -20 -20 -20 -20 -20 -20 -1 2 -20 -20 -20 -20 -20 -20 -20 -20 -20
-18 -3 -20 -20 -18 -20 -20 -20 -20 -11 -20 -20 -14 -20 -20 -20 -20 -20 -20 -20 -20 -20
1 -14 -11 -4 -20 -20 -20 -20 -20 0 -20 10 6 -20 -20 -20 -20 -20 -20 -20 -20 -20
-8 -6 -6 -20 -20 -20 -20 -20 -20 -20 3 -10 4 -20 -20 -20 -20 -15 -16 -20 -20 -20
3 -12 -8 -6 -15 -20 -20 -20 -20 -20 -8 -18 -20 -6 -20 -20 -20 -16 -17 -20 -20 -20
Wind_Speed
5 2 4 2 4 5 5 6 8 9 10 13 14 13 13 10 9 9 8 11 11 7
5 4 1 2 2 3 4 6 8 10 12 13 14 14 14 10 11 8 10 10 10 6
4 4 3 3 3 4 5 7 9 11 12 12 12 13 12 9 9 11 9 6 8 7
5 5 4 3 2 4 6 9 10 11 11 11 11 10 9 12 12 9 8 8 8 9
6 5 4 3 4 5 8 9 10 10 11 10 10 10 8 8 8 8 8 9 9 11
6 5 5 5 5 6 9 10 10 9 9 8 8 7 7 6 7 7 9 10 11 12
5 5 5 5 6 8 9 9 9 9 7 7 10 7 7 5 7 9 10 10 10 11
3 4 5 5 7 8 9 9 9 8 7 8 8 3 7 9 10 11 12 10 10 10
4 5 5 6 8 9 9 10 11 7 8 8 7 10 5 6 9 12 11 9 10 10
5 6 7 8 8 9 10 10 11 5 7 10 3 8 4 3 9 11 9 9 9 10
5 7 8 9 9 9 8 10 10 5 5 9 3 10 6 3 10 9 9 9 10 10
7 8 9 9 10 8 9 10 8 6 7 8 5 10 6 3 9 9 9 9 10 8
7 9 10 10 10 9 9 10 7 7 7 5 5 11 8 4 6 7 7 9 9 4
8 9 9 9 8 10 11 8 6 3 6 7 5 6 10 6 5 6 6 8 7 7
Wind_Direction
124 138 245 247 325 311 323 330 336 306 311 308 308 305 299 289 284 289 285 287 295 291
183 189 266 263 265 316 317 319 320 318 313 312 310 306 300 291 294 304 297 306 303 321
161 193 160 213 285 315 316 312 317 316 313 313 310 303 305 324 327 318 307 293 296 301
208 178 203 259 292 304 315 317 316 313 313 308 310 348 324 311 298 302 313 319 305 306
205 214 233 257 284 316 312 314 312 309 310 329 331 311 316 325 334 321 304 296 288 302
210 239 267 278 290 306 312 311 307 305 306 312 310 294 309 297 273 290 305 309 321 317
231 268 276 283 293 307 305 300 302 302 319 318 281 282 260 303 326 308 312 320 317 310
268 258 264 279 286 297 297 295 291 298 306 284 290 325 354 337 322 318 312 311 305 309
278 257 265 276 289 288 289 289 290 296 289 292 284 104 72 332 316 309 308 310 316 315
239 252 267 281 285 291 298 301 294 286 283 286 264 128 127 314 301 304 312 312 314 315
240 259 275 279 281 286 304 288 286 254 243 274 262 160 154 278 291 303 301 316 311 308
264 276 281 285 288 290 290 296 300 297 268 265 225 160 155 269 302 299 316 308 304 327
285 286 291 293 291 287 288 288 302 306 285 288 264 175 183 220 294 304 298 305 313 118
284 294 299 292 291 287 290 300 293 306 284 295 260 264 190 196 273 287 313 306 306 311